TimeEDT,TemperatureF,Dew PointF,Humidity,Sea Level PressureIn,VisibilityMPH,Wind Direction,Wind SpeedMPH,Gust SpeedMPH,PrecipitationIn,Events,Conditions,WindDirDegrees,DateUTC
12:51 AM,55.0,45.0,69,29.97,10.0,SSW,5.8,-,N/A,,Clear,200,2013-10-22 04:51:00
1:51 AM,53.1,44.1,71,29.96,10.0,SSW,3.5,-,N/A,,Clear,200,2013-10-22 05:51:00
2:51 AM,51.1,43.0,74,29.93,10.0,Calm,Calm,-,N/A,,Clear,0,2013-10-22 06:51:00
3:51 AM,48.9,44.1,83,29.91,10.0,Calm,Calm,-,N/A,,Clear,0,2013-10-22 07:51:00
4:51 AM,46.9,42.1,83,29.90,10.0,Calm,Calm,-,N/A,,Clear,0,2013-10-22 08:51:00
5:51 AM,50.0,43.0,77,29.88,10.0,Calm,Calm,-,N/A,,Clear,0,2013-10-22 09:51:00
6:51 AM,51.1,44.1,77,29.88,10.0,Calm,Calm,-,N/A,Fog,Shallow Fog,0,2013-10-22 10:51:00
7:51 AM,48.9,44.1,83,29.85,8.0,Calm,Calm,-,N/A,Fog,Shallow Fog,0,2013-10-22 11:51:00
8:51 AM,55.0,48.0,77,29.84,8.0,South,3.5,-,N/A,,Clear,190,2013-10-22 12:51:00
9:51 AM,61.0,48.9,64,29.84,10.0,SSW,13.8,-,N/A,,Partly Cloudy,200,2013-10-22 13:51:00
10:51 AM,64.9,46.0,50,29.82,10.0,SW,15.0,-,N/A,,Overcast,220,2013-10-22 14:51:00
11:51 AM,64.9,46.9,52,29.80,10.0,South,10.4,-,N/A,,Overcast,190,2013-10-22 15:51:00
12:51 PM,66.0,46.0,48,29.78,10.0,SW,5.8,-,N/A,,Overcast,230,2013-10-22 16:51:00
1:51 PM,64.0,46.0,52,29.77,10.0,West,9.2,-,N/A,,Overcast,270,2013-10-22 17:51:00
2:51 PM,62.1,45.0,53,29.77,10.0,Variable,5.8,-,0.00,Rain,Light Rain,0,2013-10-22 18:51:00
3:51 PM,64.0,45.0,50,29.75,10.0,SW,9.2,-,0.00,,Overcast,220,2013-10-22 19:51:00
4:51 PM,63.0,44.1,50,29.76,10.0,SW,13.8,-,N/A,,Partly Cloudy,230,2013-10-22 20:51:00
5:51 PM,61.0,44.1,54,29.76,10.0,WSW,10.4,-,N/A,,Clear,240,2013-10-22 21:51:00
6:51 PM,60.1,44.1,55,29.77,10.0,WSW,6.9,-,N/A,,Clear,240,2013-10-22 22:51:00
7:51 PM,55.0,44.1,67,29.78,10.0,South,5.8,-,N/A,,Clear,190,2013-10-22 23:51:00
8:51 PM,55.9,43.0,62,29.78,10.0,SW,8.1,-,N/A,,Clear,230,2013-10-23 00:51:00
9:51 PM,55.0,37.0,51,29.80,10.0,WNW,8.1,-,N/A,,Clear,290,2013-10-23 01:51:00
10:51 PM,53.1,37.0,55,29.81,10.0,NNW,6.9,-,N/A,,Clear,330,2013-10-23 02:51:00
11:51 PM,51.1,37.9,61,29.81,10.0,NNW,4.6,-,N/A,,Clear,330,2013-10-23 03:51:00